This is the latest recevied weather packets stored in our database for station/object OH2TI. If no packets are shown the sender has not sent any weather packets the latest 10 day(s).
| Time | Temp. | Humidity | Pressure | Rain* | Wind** | Luminosity | Snow |
|---|---|---|---|---|---|---|---|
| 1777758153 | 7.78° C | 77% | 1003.9 hPa | - | - | - | - |
| 1777757580 | 7.78° C | 77% | 1004.1 hPa | - | - | - | - |
| 1777757150 | 7.78° C | 78% | 1004.2 hPa | - | - | - | - |
| 1777756725 | 7.78° C | 78% | 1004.3 hPa | - | - | - | - |
| 1777756403 | 7.78° C | 78% | 1004.3 hPa | - | - | - | - |
| 1777755735 | 7.78° C | 78% | 1004.4 hPa | - | - | - | - |
| 1777755367 | 7.78° C | 79% | 1004.5 hPa | - | - | - | - |
| 1777754880 | 7.78° C | 78% | 1004.6 hPa | - | - | - | - |
| 1777754260 | 8.33° C | 75% | 1004.7 hPa | - | - | - | - |
| 1777753912 | 8.89° C | 73% | 1004.7 hPa | - | - | - | - |
| 1777753050 | 8.89° C | 73% | 1004.9 hPa | - | - | - | - |
| 1777752530 | 8.89° C | 73% | 1005 hPa | - | - | - | - |
| 1777751763 | 8.89° C | 72% | 1005.1 hPa | - | - | - | - |
| 1777751422 | 8.89° C | 72% | 1005.1 hPa | - | - | - | - |
| 1777750743 | 9.44° C | 71% | 1005.1 hPa | - | - | - | - |
| 1777750430 | 9.44° C | 71% | 1005.2 hPa | - | - | - | - |
| 1777750070 | 9.44° C | 71% | 1005.1 hPa | - | - | - | - |
| 1777749382 | 10° C | 69% | 1005.2 hPa | - | - | - | - |
| 1777748887 | 10.56° C | 66% | 1005.2 hPa | - | - | - | - |
| 1777748120 | 11.11° C | 63% | 1005.3 hPa | - | - | - | - |
| 1777747423 | 12.22° C | 60% | 1005.3 hPa | - | - | - | - |
| 1777746720 | 12.22° C | 59% | 1005.3 hPa | - | - | - | - |
| 1777746325 | 12.78° C | 58% | 1005.4 hPa | - | - | - | - |
| 1777745782 | 13.33° C | 57% | 1005.4 hPa | - | - | - | - |
| 1777744890 | 13.33° C | 55% | 1005.3 hPa | - | - | - | - |
* Rain since midnight (hover to see other rain measurements)
** Current wind speed in m/s (hover to see current wind gust speed)